STARLINK-1096, 44942

Orbit data source: Space-Track

STARLINK-1096, 44942 is a payload satellite owned by SpaceX/Seattle (US) in LEO that was launched on Tue, 07 Jan 2020 UTC via an FALCON 9 launch vehicle from the Air Force Eastern Test Range (AFETR). Payload-class satellites include a variety of spacecraft equipped with specific instruments for various scientific and technological missions. These include communications satellites like Starlink; space stations such as the ISS; scientific satellites like the Hubble; Earth observation satellites from companies like Planet Labs, Umbra, and HawkEye 360; GPS; miniature CubeSats for education and research; and military/defense satellites.

Not visible in the next 10 days
Identifier
44942, 2020-001AE
Orbit
LEO
Country
Flag of USUS
Related business
Manufacturer
SpaceX/Seattle
Mission
Partially operational Commercial Communications
Bus & Motor
STARLINK, Unknown motor
Mass
260 kg wet, ~248 kg dry
Launch date (UTC)
2020-01-07 (6 years ago)
Launch vehicle
FALCON 9
Launch site
Air Force Eastern Test Range (AFETR)
Object type
Payload
Rocket body
Debris
Shape & HBR
Box + 1 Pan, 10.1 m
Radar Cross Section
13.562 m², Large (>1 m²)

Expand to show TLE details & history
Last TLE update: 1 week ago

TLE from 1 week ago
0 STARLINK-1096
1 44942U 20001AE  25331.96574413  .09611050  12518-4  21803-3 0  9999
2 44942  52.9650 162.1034 0004894 253.8334 106.2176 16.46256740328425
Epoch: 2025-11-27T23:10Z
TLE epoch observation values (Epoch: 2025-11-27T23:10:40.292Z)
Latitude
-0.00001°
Longitude
107.32043°
Altitude
151.027 km
Speed
7.816 km/s
True Right ascension
10h 48m 24s
True Declination
0° 00' 00"
Sunlit
Object was in daylight at epoch
Visualization orbit readout
Latitude
Unknown
Longitude
Unknown
Altitude
Unknown
Speed
Unknown
Apparent Right ascension
Unknown
Apparent Declination
Unknown
Sunlit
N/A
Visualization observer readout
Local Sidereal Time
02:45:27
Azimuth
Unknown
Elevation
Unknown
Doppler factor
Unknown
Orbital elements
Apogee altitude
152.708 km
Perigee altitude
146.319 km
Semi-major axis
6,527.65 km
Eccentricity
0.00049
Inclination
52.965°
RAAN
162.1034°
Arg. of periapsis
253.8334°
True anomaly
106.27144°
Mean anomaly
106.2176°
Eccentric anomaly
106.24452°
Mean motion
4.11536 °/min
Orbital period
87.48 mins
BSTAR
0.00021803
Loading maneuver chart data...
Computing Atmospheric mass density...

Documentation

Showing up to 5 results
|